Location: Vancouver
(49.2500°N, 123.1330°W)
Time: 02:44:46
(UTC-07:00)

BREEZE-M DEB (TANK) - Visible Passes

Search period start: 31 March 2015 00:00
Search period end: 10 April 2015 00:00
Orbit: 289 x 13555 km, 49.6° (Epoch: 29 March)

Date Brightness Start Highest point End Pass type
(mag) Time Alt. Az. Time Alt. Az. Time Alt. Az.
01 Apr 9.0 04:49:07 10° SSE 05:13:48 17° SE 05:31:45 10° E visible
02 Apr 8.3 06:02:23 10° S 06:50:49 33° SE 07:06:03 10° ENE visible
04 Apr 8.8 04:43:40 10° SSE 05:19:49 22° SE 05:38:36 10° E visible
05 Apr 8.0 06:02:26 10° S 06:56:04 39° SE 07:10:47 10° ENE visible
06 Apr 9.0 03:43:41 10° SE 03:46:56 11° ESE 04:01:54 10° ESE visible
07 Apr 8.6 04:39:25 10° SSE 05:24:50 27° SE 05:43:39 10° E visible
08 Apr 7.8 06:02:35 10° SSW 07:00:22 45° SE 07:14:29 10° ENE visible
09 Apr 8.8 03:29:55 10° SE 03:51:38 15° ESE 04:12:13 10° E visible
